Location: Ferchesar
(52.6477°N, 12.4298°E)
Time: 22:55:27
(UTC+01:00)

TIGRISAT - Pass Details

Date: 19 October 2021
Orbit: 603 x 689 km, 97.7° (Epoch: 30 November)

Event Time Altitude Azimuth Distance (km) Brightness Sun altitude
Rises 20:59:09 0° 10° (N) 3,018 ? -26.7°
Reaches altitude 10° 21:01:28 10° 6° (N) 2,087 ? -27.0°
Maximum altitude 21:05:52 51° 291° (WNW) 822 ? -27.6°
Drops below altitude 10° 21:10:07 10° 216° (SW) 2,020 ? -28.2°
Sets 21:12:19 0° 211° (SSW) 2,910 ? -28.6°
